[TLELIST] Archives

 

[list_settings.list_name] Current TLEs

February 4th 2014 PST

HST 1 20580U 90037B 14034.84934832 .00005195 00000-0 34904-3 0 4300 2 20580 028.4693 193.1920 0002987 309.5642 168.1636 15.04599473104619 ISS (ZARYA) 1 25544U 98067A 14035.27231253 .00009440 00000-0 17303-3 0 6135 2 25544 051.6487 038.4511 0004137 103.7747 010.9113 15.50022515870702 CXO 1 25867U 99040B 14035.66468712 -.00000070 00000-0 00000+0 0 9822 2 25867 076.5406 326.7839 8291411 275.6482 000.7237 00.37804096 11419 ____________________________________________________________________ These 2-Line ...Continue Reading

[list_settings.list_name] Current TLEs

February 3rd 2014 PST

HST 1 20580U 90037B 14033.51137826 .00003282 00000-0 21619-3 0 4293 2 20580 028.4694 201.9762 0002924 294.4423 121.7873 15.04595031104403 ISS (ZARYA) 1 25544U 98067A 14034.37368881 .00008999 00000-0 16545-3 0 6059 2 25544 051.6484 042.9000 0004200 098.3769 038.6277 15.50002797870568 CXO 1 25867U 99040B 14035.66468712 -.00000070 00000-0 00000+0 0 9822 2 25867 076.5406 326.7839 8291411 275.6482 000.7237 00.37804096 11419 ____________________________________________________________________ These 2-Line ...Continue Reading

[list_settings.list_name] Current TLEs

February 2nd 2014 PST

HST 1 20580U 90037B 14031.93215238 .00002965 00000-0 19415-3 0 4288 2 20580 028.4692 212.3446 0002860 275.7127 209.7091 15.04587189104176 ISS (ZARYA) 1 25544U 98067A 14033.27202506 .00008520 00000-0 15719-3 0 5981 2 25544 051.6477 048.3586 0004314 094.2190 011.4693 15.49980497870390 CXO 1 25867U 99040B 14035.66468712 -.00000070 00000-0 00000+0 0 9822 2 25867 076.5406 326.7839 8291411 275.6482 000.7237 00.37804096 11419 ____________________________________________________________________ These 2-Line ...Continue Reading

[list_settings.list_name] Current TLEs

February 1st 2014 PST

HST 1 20580U 90037B 14031.93215238 .00002965 00000-0 19415-3 0 4288 2 20580 028.4692 212.3446 0002860 275.7127 209.7091 15.04587189104176 ISS (ZARYA) 1 25544U 98067A 14032.23854008 .00007908 00000-0 14660-3 0 5912 2 25544 051.6486 053.4810 0003903 090.9093 004.2249 15.49959532870231 CXO 1 25867U 99040B 14033.01926120 .00000025 00000-0 00000+0 0 9819 2 25867 076.5413 326.8863 8297607 275.6923 000.5953 00.37804975 11406 ____________________________________________________________________ These 2-Line ...Continue Reading

[list_settings.list_name] Current TLEs

January 31st 2014 PST

HST 1 20580U 90037B 14030.80418478 .00002794 00000-0 18228-3 0 4274 2 20580 028.4691 219.7497 0002847 261.7997 221.9149 15.04583082104007 ISS (ZARYA) 1 25544U 98067A 14031.42097222 -.00009544 00000-0 -15979-3 0 5856 2 25544 051.6483 057.5313 0004055 087.4758 122.7493 15.49931792870100 CXO 1 25867U 99040B 14033.01926120 .00000025 00000-0 00000+0 0 9819 2 25867 076.5413 326.8863 8297607 275.6923 000.5953 00.37804975 11406 ____________________________________________________________________ These 2-Line ...Continue Reading

[list_settings.list_name] Current TLEs

January 30th 2014 PST

HST 1 20580U 90037B 14029.01455657 .00002733 00000-0 17810-3 0 4263 2 20580 028.4689 231.4939 0002847 243.5722 247.5195 15.04575293103739 ISS (ZARYA) 1 25544U 98067A 14030.44122101 -.00000938 00000-0 -84642-5 0 5787 2 25544 051.6492 062.3855 0003832 091.1306 048.7017 15.49927570869957 CXO 1 25867U 99040B 14033.01986359 .00000025 00000-0 00000+0 0 9808 2 25867 076.5414 326.8870 8297446 275.6949 000.6777 00.37802137 11407 ____________________________________________________________________ These 2-Line ...Continue Reading

[list_settings.list_name] Current TLEs

January 29th 2014 PST

HST 1 20580U 90037B 14029.01455657 .00002733 00000-0 17810-3 0 4263 2 20580 028.4689 231.4939 0002847 243.5722 247.5195 15.04575293103739 ISS (ZARYA) 1 25544U 98067A 14029.47665556 -.00000937 00000-0 -84642-5 0 5716 2 25544 051.6476 067.1563 0003688 084.3307 069.9563 15.49908135869803 CXO 1 25867U 99040B 14030.37354444 .00000192 00000-0 00000+0 0 9791 2 25867 076.5323 327.0191 8305172 275.7091 000.5175 00.37802954 11396 ____________________________________________________________________ These 2-Line ...Continue Reading

[list_settings.list_name] Current TLEs

January 28th 2014 PST

HST 1 20580U 90037B 14027.88689948 .00002233 00000-0 14336-3 0 4252 2 20580 028.4689 238.8978 0002742 230.7688 260.3599 15.04569509103561 ISS (ZARYA) 1 25544U 98067A 14028.24516388 .00009524 00000-0 17544-3 0 5633 2 25544 051.6460 073.2598 0003956 065.7917 052.6827 15.49868614869618 CXO 1 25867U 99040B 14030.37354444 .00000192 00000-0 00000+0 0 9791 2 25867 076.5323 327.0191 8305172 275.7091 000.5175 00.37802954 11396 ____________________________________________________________________ These 2-Line ...Continue Reading

[list_settings.list_name] Current TLEs

January 27th 2014 PST

HST 1 20580U 90037B 14026.81785486 .00002637 00000-0 17146-3 0 4247 2 20580 028.4689 245.9223 0002755 215.7101 233.5723 15.04564688103395 ISS (ZARYA) 1 25544U 98067A 14027.27827616 .00009680 00000-0 17762-3 0 5561 2 25544 051.6489 078.0418 0003854 076.0960 043.9547 15.49958405869466 CXO 1 25867U 99040B 14027.72806149 .00000177 00000-0 00000+0 0 9782 2 25867 076.5213 327.1638 8309830 275.7043 000.5316 00.37800783 11387 ____________________________________________________________________ These 2-Line ...Continue Reading

[list_settings.list_name] Current TLEs

January 26th 2014 PST

HST 1 20580U 90037B 14025.10114655 .00002198 00000-0 14095-3 0 4233 2 20580 028.4694 257.1922 0002910 196.0597 296.4577 15.04558258103149 ISS (ZARYA) 1 25544U 98067A 14026.44153630 .00039727 00000-0 70186-3 0 5516 2 25544 051.6448 082.1857 0003883 063.9098 064.1903 15.49943751869338 CXO 1 25867U 99040B 14027.72806149 .00000177 00000-0 00000+0 0 9782 2 25867 076.5213 327.1638 8309830 275.7043 000.5316 00.37800783 11387 ____________________________________________________________________ These 2-Line ...Continue Reading
  • This mailing list is a public mailing list - anyone may join or leave, at any time.
  • This mailing list is announce-only.

International Space Station (ISS) / Hubble Space Telescope (HST) / Chandra X-Ray Observatory Orbital Data via EMAIL

Privacy Policy:

Private list